sat.trackr.live / text

‹ back to catalog

STARLINK-11380 [DTC]

NORAD 62099 · 2024-220M

PAYLOAD ACTIVE UNKNOWN

§ Identity

Operator
Country
US
Launch date
2024-11-25
Launch site
AFETR
Launch vehicle
Mass (kg)
RCS (m²)

Purposes: comms

External: N2YO · Heavens-Above · Gunter

§ Orbital elements

Epoch: 2026-05-25T03:38:26.341728Z

Period
91.65 min
Inclination
43.0000°
Eccentricity
0.0002746
Mean motion
15.71201660 rev/d
Perigee alt
353.6 km
Apogee alt
357.3 km
Semi-major
6,733.6 km
B*
2.5112e-3
RAAN
301.7402°
Arg perigee
304.9028°
Mean anomaly
55.1581°
Rev number
8,698

§ Raw data

STARLINK-11380 [DTC]1 62099U 24220M   26145.15169377  .00340463  00000+0  25112-2 0  99952 62099  43.0000 301.7402 0002746 304.9028  55.1581 15.71201660 86982

JSON: /api/v1/satellites/62099 · /tle

For live sub-satellite position, see the globe view (requires WebGL).

§ Visibility from observer

Set your observer location to see the next 7 days of passes ≥ 10°. The values pass through the URL so the page stays shareable.

No JS? Fill the form by hand. The geolocation button needs JavaScript.